Retour au catalogue

COSMOS 970 DEB

ActifLEO
NORAD 12868·DEBRIS·🇷🇺 Russia

Lancé Dec 21, 1977 depuis Baikonur Cosmodrome

Loading…

Prochains Passages (prochaines 24 heures)

TLE

FraisSource: Space-Track

Époque: Sep 14, 2026, 05:42 UTC

1 12868U 77121AW  26257.23783873  .00000408  00000-0  50540-3 0  9995
2 12868  65.7647 340.0412 0049830  41.5354 349.9948 13.75181172424240

Suivez COSMOS 970 DEB en temps réel avec AllMySat

Download on the App Store